[[{"header":{"parameterUnit":"m.s-1","parameterCategory":1,"la1":30.2991,"la2":30.254,"lo1":-89.0895,"lo2":-89.0444,"dy":0.0017,"dx":0.0017,"nx":28,"ny":28,"refTime":"2024-06-15T09:00:00:Z","depth":0,"parameterNumber":2,"parameterNumberName":"U-component_of_WINDS"},"data":[0,0,0,0,0,0,0,0,0,0,0,0,0,0,0,0,0,0,0,0,0,0,0,0,0,0,0,0,0,0,0,0,0,0,0,0,0,0,0,0,0,0,0,0,0,0,0,0,0,0,0,0,0,0,0,0,0,0,-4.5179,-4.518,0,-4.5265,-4.5266,-4.5267,-4.515,-4.5146,-4.5142,-4.5138,-4.5224,-4.523,-4.5236,0,0,0,0,0,0,0,0,0,0,0,0,0,-4.491,-4.4915,-4.5179,-4.518,-4.5181,-4.5265,-4.5266,-4.5267,-4.5151,-4.5146,-4.5141,-4.5136,-4.5222,-4.5229,-4.5237,0,0,0,0,0,0,0,0,0,0,0,0,0,-4.5014,-4.4917,-4.5178,-4.5133,-4.513,-4.5265,-4.5266,-4.5268,-4.5152,-4.5146,-4.514,-4.5134,-4.522,-4.5229,-4.5238,-4.542,0,0,-4.5266,-4.527,0,0,0,0,0,0,0,0,-4.5009,-4.5024,-4.5139,-4.5136,-4.5133,-4.5191,-4.5203,-4.5319,-4.5154,-4.5144,-4.5138,-4.5131,-4.5218,-4.5227,-4.5257,-4.5424,-4.5428,-4.5267,-4.5273,-4.5277,-4.5279,0,0,0,0,0,0,0,-4.5002,-4.502,-4.5213,-4.514,-4.5137,-4.5107,-4.5115,-4.5224,-4.5215,-4.5144,-4.5136,-4.5148,-4.5215,-4.5248,-4.5258,-4.5429,-4.5267,-4.5275,-4.5281,-4.5284,-4.575,-4.5756,0,0,0,0,0,0,-4.5,-4.5015,-4.521,-4.5215,-4.5054,-4.5117,-4.5126,-4.5178,-4.5213,-4.5213,-4.5153,-4.5142,-4.5235,-4.5247,-4.526,-4.5475,-4.5276,-4.5285,-4.529,-4.5743,-4.5751,-4.5759,0,0,0,0,0,0,-4.4995,-4.5019,-4.5206,-4.5113,-4.5134,-4.5129,-4.5188,-4.5183,-4.5216,-4.522,-4.5217,-4.5189,-4.5231,-4.5247,-4.5381,-4.5477,-4.5289,-4.5298,-4.5735,-4.5746,-4.5755,-4.5908,0,0,0,0,0,0,-4.4988,-4.5017,-4.5087,-4.5115,-4.514,-4.5327,-4.5194,-4.519,-4.5233,-4.5219,-4.5253,-4.5252,-4.5227,-4.5368,-4.5391,-4.5486,-4.5305,-4.5726,-4.574,-4.5752,-4.5894,-4.5922,-4.5946,0,0,0,0,0,-4.4978,-4.5127,-4.5092,-4.5116,-4.5228,-4.5333,-4.5347,-4.5316,-4.5241,-4.5311,-4.5313,-4.5251,-4.5463,-4.5383,-4.5407,-4.5507,-4.572,-4.5736,-4.5751,-4.5883,-4.5916,-4.5945,0,0,0,0,0,0,-4.5109,-4.5129,-4.5091,-4.5253,-4.5292,-4.5313,-4.54,-4.5353,-4.5413,-4.5398,-4.5356,-4.5364,-4.5508,-4.5521,-4.5431,-4.5685,-4.5579,-4.56,-4.5671,-4.5703,-4.5729,-4.5722,-4.5313,0,0,0,0,0,-4.5157,-4.5242,-4.5255,-4.5396,-4.5418,-4.5406,-4.5451,-4.5424,-4.5462,-4.5478,-4.549,-4.5529,-4.5604,-4.5655,-4.5724,-4.5896,-4.5901,-4.5977,-4.6002,-4.6023,-4.6041,-4.6132,-4.6165,-4.5809,-4.5809,-4.5809,0,0,-4.5256,-4.5278,-4.5334,-4.5423,-4.545,-4.5538,-4.5421,-4.5519,-4.5583,-4.5492,-4.5619,-4.563,-4.5671,-4.5825,-4.5893,-4.584,-4.6141,-4.6043,-4.606,-4.6066,-4.6151,-4.6185,-4.6215,-4.5819,-4.5818,-4.5816,0,0,-4.5481,-4.5507,-4.5627,-4.5657,-4.5701,-4.5692,-4.5721,-4.575,-4.5753,-4.5881,-4.5814,-4.589,-4.6021,-4.6052,-4.6085,-4.6323,-4.6268,-4.6347,-4.6481,-4.657,-4.6598,-4.6623,-4.6706,-4.6737,-4.6366,-4.6366,-4.6366,0,-4.5599,-4.5729,-4.5695,-4.5798,-4.5838,-4.5762,-4.5882,-4.5913,-4.5977,-4.6006,-4.5946,-4.6108,-4.6131,-4.629,-4.6348,-4.6378,-4.6409,-4.6342,-4.6597,-4.6622,-4.6644,-4.6723,-4.6755,-4.6375,-4.6374,-4.6373,-4.6372,0,-4.5871,-4.5962,-4.6054,-4.6118,-4.617,-4.6281,-4.6262,-4.6318,-4.6287,-4.6284,-4.6414,-4.6438,-4.6511,-4.6547,-4.6517,-4.6702,-4.6668,-4.6604,-4.6496,-4.6688,-4.6761,-4.6791,-4.6388,-4.6385,-4.6382,-4.638,0,0,-4.6179,-4.6224,-4.6258,-4.6286,-4.6328,-4.6398,-4.6505,-4.6577,-4.6625,-4.6672,-4.676,-4.6873,-4.6814,-4.6852,-4.6825,-4.6903,-4.7088,-4.6829,-4.6829,-4.6875,-4.7292,-4.7339,-4.7375,-4.7053,-4.7059,-4.7063,-4.7288,0,-4.6403,-4.659,-4.6563,-4.6742,-4.6826,-4.6755,-4.6848,-4.6884,-4.6884,-4.6954,-4.6954,-4.7035,-4.6951,-4.6973,-4.7048,-4.705,-4.7171,-4.7034,-4.7133,-4.7137,-4.7123,-4.7414,-4.7464,-4.7675,-4.7317,-4.7322,-4.7325,0,-4.6689,-4.6747,-4.6936,-4.6965,-4.6999,-4.7083,-4.7147,-4.7215,-4.7254,-4.7249,-4.7292,-4.7251,-4.7357,-4.7249,-4.7394,-4.7302,-4.7341,-4.7348,-4.7355,-4.7362,-4.7242,-4.7426,-4.7742,-4.7773,-4.7371,-4.7367,-4.7364,0,-4.6893,-4.7019,-4.7147,-4.7174,-4.7211,-4.7272,-4.7291,-4.7323,-4.7368,-4.7424,-4.7452,-4.7519,-4.7555,-4.7608,-4.7585,-4.7509,-4.7735,-4.7625,-4.7732,-4.7733,-4.7781,-4.7778,-4.8105,-4.781,-4.7809,-4.7809,-4.7808,0,-4.7145,-4.7263,-4.7239,-4.7319,-4.7448,-4.7415,-4.7543,-4.7553,-4.7583,-4.7661,-4.7604,-4.7679,-4.7646,-4.7718,-4.7702,-4.7824,-4.7841,-4.7839,-4.7832,-4.7843,-4.7843,-4.7866,-4.785,-4.7817,-4.7815,-4.7813,-4.7812,0,-4.7394,-4.7384,-4.7519,-4.7544,-4.7553,-4.7647,-4.7668,-4.7741,-4.7738,-4.7838,-4.786,-4.7854,-4.7936,-4.792,-4.801,-4.7999,-4.8151,-4.8128,-4.8139,-4.8132,-4.8239,-4.8229,-4.8591,-4.8637,-4.8314,-4.8317,-4.832,0,-4.7555,-4.7644,-4.7679,-4.7728,-4.7751,-4.7831,-4.7877,-4.7848,-4.7898,-4.7949,-4.8016,-4.8093,-4.8153,-4.8288,-4.8291,-4.836,-4.8336,-4.8459,-4.8346,-4.8354,-4.8336,-4.833,-4.8338,-4.8481,-4.8484,-4.8487,-4.849,0,-4.7841,-4.7831,-4.79,-4.7967,-4.8024,-4.8075,-4.8121,-4.8164,-4.8139,-4.8198,-4.8282,-4.8329,-4.8421,-4.8498,-4.8562,-4.8579,-4.8531,-4.8526,-4.8554,-4.8564,-4.8566,-4.8565,-4.8198,-4.8517,-4.8514,-4.8512,-4.8511,-4.851,-4.8049,-4.8124,-4.8161,-4.8239,-4.8271,-4.8315,-4.8385,-4.8391,-4.8461,-4.8534,-4.8513,-4.8608,-4.8644,-4.8725,-4.875,-4.8823,-4.8777,-4.8818,-4.8828,-4.8838,-4.885,-4.8556,-4.8835,-4.8834,-4.8833,-4.8833,-4.8832,0,-4.833,-4.835,-4.8423,-4.8489,-4.855,-4.8501,-4.8549,-4.8603,-4.8688,-4.8726,-4.8787,-4.8883,-4.8958,-4.8968,-4.9038,-4.9094,-4.9074,-4.9114,-4.9108,-4.9112,-4.8888,-4.8856,-4.9129,-4.9129,-4.9129,-4.9129,-4.9129,-4.9129,-4.8483,-4.8607,-4.8603,-4.8742,-4.8761,-4.8854,-4.8886,-4.8926,-4.8956,-4.9066,-4.9128,-4.9135,-4.9161,-4.9233,-4.9299,-4.93,-4.9327,-4.9376,-4.9368,-4.9158,-4.9128,-4.91,-4.907,-4.9383,-4.9383,-4.9586,-4.9588,-4.9589]},{"header":{"parameterUnit":"m.s-1","parameterCategory":1,"la1":30.2991,"la2":30.254,"lo1":-89.0895,"lo2":-89.0444,"dy":0.0017,"dx":0.0017,"nx":28,"ny":28,"refTime":"2024-06-15T09:00:00:Z","depth":0,"parameterNumber":3,"parameterNumberName":"V-component_of_WINDS"},"data":[0,0,0,0,0,0,0,0,0,0,0,0,0,0,0,0,0,0,0,0,0,0,0,0,0,0,0,0,0,0,0,0,0,0,0,0,0,0,0,0,0,0,0,0,0,0,0,0,0,0,0,0,0,0,0,0,0,0,-0.2582,-0.2582,0,-0.2607,-0.2607,-0.2607,-0.2677,-0.2678,-0.268,-0.2681,-0.2703,-0.2702,-0.2701,0,0,0,0,0,0,0,0,0,0,0,0,0,-0.2589,-0.2588,-0.2582,-0.2582,-0.2582,-0.2607,-0.2607,-0.2608,-0.2676,-0.2678,-0.268,-0.2682,-0.2703,-0.2702,-0.2701,0,0,0,0,0,0,0,0,0,0,0,0,0,-0.2597,-0.2588,-0.2582,-0.262,-0.2624,-0.2607,-0.2607,-0.2608,-0.2676,-0.2678,-0.268,-0.2683,-0.2703,-0.2702,-0.2701,-0.2648,0,0,-0.2697,-0.2697,0,0,0,0,0,0,0,0,-0.2596,-0.2597,-0.2614,-0.2617,-0.2621,-0.2641,-0.2618,-0.2621,-0.2675,-0.2656,-0.2681,-0.2684,-0.268,-0.2681,-0.2681,-0.2649,-0.265,-0.2697,-0.2696,-0.2696,-0.2696,0,0,0,0,0,0,0,-0.2596,-0.2596,-0.2592,-0.2614,-0.2619,-0.2634,-0.2638,-0.2619,-0.2655,-0.2658,-0.2663,-0.2665,-0.2683,-0.2682,-0.2682,-0.2651,-0.2697,-0.2696,-0.2695,-0.2695,-0.2575,-0.2572,0,0,0,0,0,0,-0.259,-0.2595,-0.2591,-0.2592,-0.2614,-0.2632,-0.2636,-0.2632,-0.2655,-0.2661,-0.2663,-0.2668,-0.2683,-0.2683,-0.2683,-0.2621,-0.2696,-0.2695,-0.2694,-0.2577,-0.2574,-0.2572,0,0,0,0,0,0,-0.259,-0.2589,-0.259,-0.2595,-0.2596,-0.263,-0.2625,-0.2632,-0.2631,-0.266,-0.2666,-0.2656,-0.2684,-0.2684,-0.2656,-0.2623,-0.2694,-0.2693,-0.258,-0.2576,-0.2573,-0.2498,0,0,0,0,0,0,-0.259,-0.2589,-0.2571,-0.2594,-0.2596,-0.2564,-0.2623,-0.263,-0.2629,-0.2636,-0.2654,-0.266,-0.2686,-0.2658,-0.2655,-0.2622,-0.2692,-0.2583,-0.2578,-0.2574,-0.2504,-0.2492,-0.2483,0,0,0,0,0,-0.259,-0.2548,-0.2569,-0.2568,-0.2574,-0.2562,-0.2563,-0.2596,-0.2626,-0.2607,-0.2625,-0.2659,-0.2627,-0.2654,-0.2652,-0.2618,-0.2585,-0.258,-0.2574,-0.2508,-0.2495,-0.2483,0,0,0,0,0,0,-0.2519,-0.2552,-0.2576,-0.2541,-0.2548,-0.2574,-0.2551,-0.258,-0.2579,-0.2585,-0.2624,-0.2628,-0.2593,-0.2603,-0.2633,-0.2567,-0.2612,-0.2605,-0.2562,-0.2549,-0.2539,-0.2537,-0.2691,0,0,0,0,0,-0.2499,-0.2488,-0.2518,-0.2483,-0.2486,-0.2517,-0.2514,-0.2538,-0.2547,-0.255,-0.2567,-0.2573,-0.2564,-0.2557,-0.2551,-0.2505,-0.2509,-0.2481,-0.247,-0.2462,-0.2456,-0.243,-0.2417,-0.2553,-0.2553,-0.2554,0,0,-0.2458,-0.2475,-0.2466,-0.2469,-0.2478,-0.2464,-0.252,-0.2503,-0.2493,-0.2548,-0.2522,-0.2533,-0.2543,-0.2505,-0.2489,-0.2512,-0.2419,-0.2455,-0.2447,-0.2446,-0.2423,-0.241,-0.2398,-0.255,-0.255,-0.2551,0,0,-0.2376,-0.2389,-0.2361,-0.2368,-0.2381,-0.2402,-0.2395,-0.2416,-0.2426,-0.2401,-0.2441,-0.2428,-0.2413,-0.2417,-0.2418,-0.2335,-0.2365,-0.2331,-0.2276,-0.2251,-0.224,-0.2231,-0.2199,-0.2188,-0.2325,-0.2325,-0.2325,0,-0.2324,-0.2306,-0.2343,-0.2323,-0.2323,-0.2372,-0.2343,-0.2348,-0.2357,-0.2355,-0.2381,-0.2361,-0.2371,-0.2334,-0.2313,-0.2312,-0.2304,-0.233,-0.2239,-0.223,-0.2222,-0.2192,-0.2181,-0.2321,-0.2321,-0.2322,-0.2322,0,-0.2239,-0.2226,-0.2202,-0.221,-0.2207,-0.2183,-0.2214,-0.2206,-0.223,-0.2247,-0.222,-0.2233,-0.2229,-0.2222,-0.2246,-0.2188,-0.2201,-0.2232,-0.2277,-0.2204,-0.2177,-0.2166,-0.2315,-0.2316,-0.2318,-0.2319,0,0,-0.2114,-0.2142,-0.2133,-0.2136,-0.2153,-0.2143,-0.2119,-0.2117,-0.2108,-0.2112,-0.2092,-0.2077,-0.2105,-0.2105,-0.2129,-0.2107,-0.2038,-0.2141,-0.2141,-0.212,-0.1973,-0.1949,-0.1935,-0.2058,-0.2056,-0.2055,-0.1971,0,-0.2036,-0.2,-0.2031,-0.1988,-0.1975,-0.202,-0.2,-0.2007,-0.2022,-0.2011,-0.2028,-0.2016,-0.2055,-0.2055,-0.2035,-0.2051,-0.2009,-0.2057,-0.2038,-0.2037,-0.2034,-0.1921,-0.1896,-0.1817,-0.1961,-0.196,-0.1958,0,-0.1941,-0.1941,-0.1896,-0.1914,-0.191,-0.1891,-0.189,-0.188,-0.1887,-0.19,-0.1899,-0.1928,-0.1904,-0.1948,-0.1915,-0.1947,-0.1941,-0.1947,-0.1945,-0.1944,-0.1993,-0.1916,-0.1793,-0.178,-0.1942,-0.1944,-0.1945,0,-0.1852,-0.1841,-0.1813,-0.1814,-0.1835,-0.182,-0.1827,-0.1838,-0.1833,-0.1831,-0.1828,-0.1823,-0.182,-0.1815,-0.1841,-0.1871,-0.1803,-0.185,-0.1811,-0.181,-0.1794,-0.1794,-0.1667,-0.1791,-0.1791,-0.1792,-0.1792,0,-0.1761,-0.1732,-0.1773,-0.1755,-0.1723,-0.1758,-0.1724,-0.1737,-0.1744,-0.1728,-0.1767,-0.1751,-0.1787,-0.1773,-0.1793,-0.1761,-0.176,-0.1768,-0.1773,-0.1764,-0.1762,-0.176,-0.1766,-0.1789,-0.1789,-0.179,-0.179,0,-0.1657,-0.1684,-0.1655,-0.1677,-0.1681,-0.1656,-0.1673,-0.1657,-0.1674,-0.1653,-0.165,-0.1676,-0.1662,-0.1688,-0.1677,-0.169,-0.1645,-0.166,-0.1643,-0.1647,-0.1605,-0.1608,-0.1471,-0.1454,-0.159,-0.1589,-0.1587,0,-0.1597,-0.1575,-0.1594,-0.1586,-0.1592,-0.1579,-0.1575,-0.1608,-0.1601,-0.1607,-0.1589,-0.1579,-0.1572,-0.1547,-0.1564,-0.1555,-0.1569,-0.1522,-0.1568,-0.1559,-0.1567,-0.1567,-0.1564,-0.1512,-0.151,-0.1509,-0.1508,0,-0.1487,-0.15,-0.1494,-0.149,-0.1484,-0.1483,-0.1484,-0.1475,-0.151,-0.15,-0.1487,-0.1481,-0.147,-0.1458,-0.1453,-0.1459,-0.1488,-0.1493,-0.1483,-0.1473,-0.1464,-0.1467,-0.1615,-0.1496,-0.1497,-0.1498,-0.1499,-0.1499,-0.1402,-0.1384,-0.1394,-0.1384,-0.1389,-0.1388,-0.1374,-0.1389,-0.1379,-0.1373,-0.1392,-0.1374,-0.1379,-0.1376,-0.1378,-0.1363,-0.1384,-0.137,-0.1366,-0.1362,-0.1355,-0.1466,-0.1362,-0.1362,-0.1363,-0.1363,-0.1363,0,-0.1293,-0.1301,-0.1292,-0.1292,-0.1284,-0.1313,-0.1315,-0.1306,-0.129,-0.1293,-0.1285,-0.1269,-0.1257,-0.1272,-0.1263,-0.1247,-0.126,-0.1243,-0.1244,-0.1245,-0.1337,-0.1346,-0.1233,-0.1233,-0.1233,-0.1233,-0.1233,-0.1233,-0.1235,-0.1206,-0.122,-0.1193,-0.1201,-0.1185,-0.1183,-0.1182,-0.1185,-0.1165,-0.1156,-0.1166,-0.1174,-0.1164,-0.1154,-0.1159,-0.1152,-0.1131,-0.114,-0.1226,-0.1239,-0.1251,-0.1259,-0.113,-0.1129,-0.1049,-0.1048,-0.1047]}]]